Flag for Spain Weather past 2 weeks in Sevilla, Spain

Now
75 °F

Sunny.


Feels Like: 77 °F
Forecast: 68 / 88 °F
Wind: 9 mph from Northeast

Location: Sevilla / San Pablo

Current Time: Sep 30, 2014 at 1:08:28 PM

Latest Report: Sep 30, 2014 at 12:30 PM


Visibility: 10 mi

Pressure: 30.15 "Hg

Humidity: 61%

Dew point: 61 °F

Location of SevillaLocation

Historic Weather in Sevilla — Graph

°F

Sevilla temperature yesterday

Maximum temperature yesterday: 82 °F (at 6:00 PM)
Minimum temperature yesterday: 63 °F (at 5:30 AM)
Average temperature yesterday: 71 °F

Past Weeks' High & Low Weather Summary

 TemperatureHumidityPressure
High86 °F (Sep 15, 6:00 PM)100% (Sep 17, 4:30 AM)30.18 "Hg (Sep 17, 4:30 AM)
Low63 °F (Sep 25, 6:00 AM)32% (Sep 26, 3:30 PM)29.74 "Hg (Sep 16, 1:00 PM)
Average71 °F75%29.98 "Hg
* Reported Sep 15 12:00 Noon — Sep 30 12:00 Noon, Sevilla, Weather by CustomWeather, © 2014

Note: Actual official high and low records may vary slightly from our data, if they occured in-between our weather recording intervals... More about our weather records

Advertising

Sevilla weather history for previous 24 hours

 ConditionsComfort  
Time TempWeatherWind HumidityBarometerVisibility
12:00 PM
Sep 30
73 °FSunny.10 mph69%30.15 "Hg10 mi
11:30 AM73 °FSunny.9 mph65%30.15 "Hg10 mi
11:00 AM72 °FSunny.13 mph69%30.15 "Hg10 mi
10:30 AM70 °FSunny.13 mph73%30.15 "Hg10 mi
10:00 AM68 °FSunny.8 mph78%30.15 "Hg10 mi
9:30 AM64 °FPassing clouds.6 mph88%30.15 "HgN/A
9:00 AM63 °FPassing clouds.3 mph94%30.15 "HgN/A
8:30 AM63 °FClear.2 mph94%30.15 "Hg10 mi
8:00 AM63 °FClear.1 mph94%30.15 "Hg10 mi
7:30 AM63 °FClear.2 mph94%30.15 "Hg10 mi
7:00 AM63 °FClear.2 mph94%30.12 "Hg10 mi
6:30 AM63 °FClear.2 mph94%30.12 "Hg10 mi
6:00 AM64 °FClear.3 mph88%30.12 "Hg10 mi
5:30 AM64 °FClear.5 mph88%30.12 "Hg10 mi
5:00 AM64 °FClear.No wind88%30.12 "Hg10 mi
4:30 AM64 °FClear.3 mph83%30.12 "Hg10 mi
4:00 AM66 °FClear.2 mph78%30.15 "Hg10 mi
3:30 AM64 °FClear.1 mph88%30.15 "Hg10 mi
1:00 AM68 °FClear.No wind83%30.15 "Hg10 mi
12:30 AM68 °FClear.1 mph78%30.15 "Hg10 mi
12:00 AM70 °FClear.1 mph73%30.15 "Hg10 mi
11:30 PM
Sep 29
70 °FClear.2 mph73%30.15 "Hg10 mi
11:00 PM70 °FClear.1 mph78%30.15 "Hg10 mi
10:30 PM70 °FClear.No wind78%30.15 "Hg10 mi
10:00 PM72 °FClear.No wind73%30.15 "Hg10 mi
9:30 PM73 °FClear.No wind61%30.12 "Hg10 mi
9:00 PM75 °FSunny.No wind54%30.12 "Hg10 mi
8:30 PM79 °FSunny.1 mph42%30.12 "Hg10 mi
8:00 PM81 °FSunny.No wind34%30.12 "Hg10 mi
7:30 PM81 °FSunny.2 mph34%30.12 "Hg10 mi
7:00 PM82 °FSunny.No wind35%30.09 "Hg10 mi
6:30 PM82 °FSunny.No wind35%30.09 "Hg10 mi
6:00 PM82 °FSunny.1 mph35%30.09 "Hg10 mi
5:30 PM81 °FSunny.No wind39%30.12 "Hg10 mi
5:00 PM81 °FSunny.1 mph39%30.12 "Hg10 mi
4:30 PM81 °FSunny.1 mph39%30.12 "Hg10 mi
4:00 PM81 °FSunny.1 mph42%30.12 "Hg10 mi
3:30 PM81 °FPassing clouds.1 mph48%30.12 "HgN/A
3:00 PM79 °FPassing clouds.3 mph51%30.15 "HgN/A
2:30 PM79 °FPassing clouds.3 mph51%30.15 "HgN/A
2:00 PM77 °FPassing clouds.2 mph51%30.15 "HgN/A
1:30 PM77 °FPassing clouds.3 mph57%30.15 "HgN/A
1:00 PM75 °FPassing clouds.5 mph61%30.15 "HgN/A
Weather by CustomWeather, © 2014

See weather overviewHow to use our weather pages